Weather History for Newark, NJ

Change the Weather History Date:

Tuesday, October 23, 2012

  Actual Average Record
Temperature  
Mean Temperature 57 °F 54 °F  
Max Temperature 65 °F 63 °F 87 °F (1978)
Min Temperature 49 °F 46 °F 30 °F (1997)
Degree Days  
Heating Degree Days 8 11  
Month to date heating degree days 149 178  
Since 1 July heating degree days 169 223  
Cooling Degree Days 0 0  
Month to date cooling degree days 19 14  
Year to date cooling degree days 1450 1188  
Growing Degree Days 6 (Base 50)    
Moisture  
Dew Point 48 °F    
Average Humidity 73    
Maximum Humidity 93    
Minimum Humidity 52    
Precipitation  
Precipitation 0.03 in 0.12 in 1.90 in (1990)
Month to date precipitation 2.26 2.69  
Year to date precipitation 28.28 37.88  
Snow  
Snow 0.00 in 0.00 in 0.00 in (2002)
Month to date snowfall 0.0 0.0  
Since 1 July snowfall 0.0 0.0  
Snow Depth 0.00 in    
Sea Level Pressure  
Sea Level Pressure 30.09 in    
Wind  
Wind Speed 4 mph (NNW)    
Max Wind Speed 9 mph    
Max Gust Speed 12 mph    
Visibility 10 miles    
Events Rain    
T = Trace of Precipitation, MM = Missing Value Source: NWS Daily Summary

Daily Weather History Graph

Daily Weather History Graph

Search for Another Location

Airport:

Trip Planner

Search our weather history database for the weather conditions in past years. The results will help you decide how hot, cold, wet, or windy it might be!

Date:

Astronomy

Oct. 23, 2012 Rise Set
Actual Time 7:17 AM EDT 6:04 PM EDT
Civil Twilight 6:49 AM EDT 6:31 PM EDT
Nautical Twilight 6:17 AM EDT 7:03 PM EDT
Astronomical Twilight 5:45 AM EDT 7:35 PM EDT
Moon 2:48 PM EDT (10/23) 1:04 AM EDT (10/23)
Length of Visible Light 11h 42m
Length of Day
10h 46m
Waxing Gibbous, 66% of the Moon is Illuminated
Oct 23
Waxing Gibbous
Oct 29
Full
Nov 6
Last Quarter
Nov 13
New
Nov 20
First Quarter

Hourly Weather History & Observations

Time (EDT) Temp. Dew Point Humidity Pressure Visibility Wind Dir Wind Speed Gust Speed Precip Events Conditions
12:51 AM 55.9 °F 43.0 °F 62% 30.07 in 10.0 mi SW 3.5 mph - N/A   Partly Cloudy
1:51 AM 53.1 °F 43.0 °F 69% 30.07 in 10.0 mi SW 5.8 mph - N/A   Partly Cloudy
2:51 AM 55.4 °F 44.6 °F 67% 30.07 in 10.0 mi West 5.8 mph - N/A   Partly Cloudy
3:51 AM 53.1 °F 44.1 °F 71% 30.07 in 10.0 mi SW 3.5 mph - N/A   Scattered Clouds
4:51 AM 53.1 °F 45.0 °F 74% 30.08 in 10.0 mi WSW 3.5 mph - N/A   Mostly Cloudy
5:51 AM 53.1 °F 45.0 °F 74% 30.09 in 10.0 mi WSW 3.5 mph - N/A   Mostly Cloudy
6:51 AM 50.0 °F 44.1 °F 80% 30.10 in 10.0 mi Calm Calm - N/A   Mostly Cloudy
7:51 AM 53.1 °F 45.0 °F 74% 30.12 in 10.0 mi WSW 3.5 mph - N/A   Mostly Cloudy
8:51 AM 59.0 °F 44.1 °F 58% 30.12 in 10.0 mi Calm Calm - N/A   Mostly Cloudy
9:51 AM 62.1 °F 45.0 °F 53% 30.14 in 10.0 mi WNW 5.8 mph - N/A   Mostly Cloudy
10:51 AM 62.1 °F 46.0 °F 56% 30.13 in 10.0 mi WSW 4.6 mph - N/A   Overcast
11:51 AM 64.0 °F 46.0 °F 52% 30.12 in 10.0 mi Variable 3.5 mph - 0.00 in Rain Light Rain
12:51 PM 64.0 °F 46.9 °F 54% 30.10 in 10.0 mi SSW 3.5 mph - 0.00 in   Overcast
1:51 PM 64.0 °F 46.9 °F 54% 30.09 in 9.0 mi North 3.5 mph - 0.00 in Rain Light Rain
2:51 PM 62.1 °F 50.0 °F 65% 30.08 in 7.0 mi NNE 4.6 mph - 0.00 in Rain Light Rain
3:51 PM 60.8 °F 51.8 °F 72% 30.07 in 10.0 mi NE 5.8 mph - N/A   Overcast
4:51 PM 60.8 °F 51.8 °F 72% 30.07 in 10.0 mi NE 4.6 mph - N/A   Mostly Cloudy
5:51 PM 61.0 °F 51.1 °F 70% 30.08 in 10.0 mi NNE 3.5 mph - N/A   Overcast
6:51 PM 60.1 °F 51.1 °F 72% 30.07 in 10.0 mi NE 4.6 mph - 0.00 in   Overcast
7:51 PM 57.9 °F 51.1 °F 78% 30.08 in 10.0 mi NNE 5.8 mph - N/A   Overcast
8:51 PM 59.0 °F 52.0 °F 78% 30.09 in 10.0 mi NNE 6.9 mph - 0.00 in Rain Light Rain
9:51 PM 57.9 °F 53.1 °F 84% 30.10 in 10.0 mi NNE 5.8 mph - 0.00 in Rain Light Rain
10:51 PM 57.0 °F 55.0 °F 93% 30.09 in 8.0 mi NNE 6.9 mph - 0.03 in Rain Light Rain
11:51 PM 57.0 °F 55.0 °F 93% 30.09 in 8.0 mi North 5.8 mph - 0.00 in   Overcast